Location: Tel Aviv
(32.0670°N, 34.7670°E)
Time: 13:17:27
(UTC+03:00)

Tiros 1 - Pass Details

Date: 20 January 2022
Orbit: 629 x 663 km, 48.4° (Epoch: 27 May)

Event Time Altitude Azimuth Distance (km) Brightness Sun altitude
Rises 21:19:38 0° 176° (S) 2,976 - -53.9°
Reaches altitude 10° 21:24:18 10° 135° (SE) 2,071 - -54.9°
Maximum altitude 21:25:00 10° 126° (SE) 2,051 - -55.0°
Drops below altitude 10° 21:25:43 10° 118° (ESE) 2,072 - -55.2°
Sets 21:30:22 0° 77° (ENE) 2,986 - -56.1°
